Terug naar catalogus

COSMOS 2251 DEB

ActiefLEO
NORAD 36050·DEBRIS·🇷🇺 Russia

Gelanceerd Jun 16, 1993 vanaf Plesetsk Cosmodrome

Loading…

Volgende Passages (komende 24 uur)

TLE

VerouderendSource: Space-Track

Epoch: Sep 12, 2026, 13:04 UTC

1 36050U 93036AXM 26255.54472758  .00003816  00000-0  25336-3 0  9997
2 36050  74.0329 354.4181 0081422 359.9853   0.1318 15.04899274711490

Volg COSMOS 2251 DEB in realtime met AllMySat

Download on the App Store